Powrót do katalogu

YAOGAN-43 O1J

AktywnyMilitariaVLEO
NORAD 60466·PAYLOAD·🇨🇳 China

Wystrzelony Aug 16, 2024 z Xichang Satellite Launch Center

Loading…

Następne Przeloty (najbliższe 24 godziny)

TLE

ŚwieżeSource: Space-Track

Epoka: Sep 14, 2026, 12:35 UTC

1 60466U 24148J   26257.52487839  .00010993  00000-0  28230-3 0  9999
2 60466  34.9909 279.3012 0005959 355.8890   4.1779 15.38469791116197

Śledź YAOGAN-43 O1J w czasie rzeczywistym z AllMySat

Download on the App Store